Location: Stone Trail Observatory
(44.2408°N, 105.6081°W)
Time: 20:19:33
(UTC-06:00)

Iridium 6 - Visible Passes

Search period start: 30 April 2016 00:00
Search period end: 10 May 2016 00:00
Orbit: 776 x 779 km, 86.4° (Epoch: 30 April)

Date Brightness Start Highest point End Pass type
(mag) Time Alt. Az. Time Alt. Az. Time Alt. Az.
30 Apr 8.5 20:34:50 10° WSW 20:38:37 20° WNW 20:42:25 10° NNW visible
01 May 8.7 05:22:00 10° NE 05:25:05 16° ENE 05:28:08 10° ESE visible
03 May 8.8 20:36:14 10° WSW 20:38:57 14° WNW 20:41:42 10° NW visible
05 May 8.9 04:49:22 10° NE 04:51:28 12° ENE 04:53:35 10° E visible
08 May 8.5 04:48:23 10° NNE 04:51:50 17° ENE 04:55:16 10° ESE visible
